Location: Unspecified
(0.0000°N, 0.0000°E)
Time: 04:37:27
(UTC-01:00)

Envisat - Visible Passes

Search period start: 21 February 2018 00:00
Search period end: 03 March 2018 00:00
Orbit: 764 x 766 km, 98.2° (Epoch: 20 February)

Date Brightness Start Highest point End Pass type
(mag) Time Alt. Az. Time Alt. Az. Time Alt. Az.
21 Feb 4.8 17:47:30 10° E 17:50:00 - NE 17:47:31 10° E visible
21 Feb 4.0 19:21:49 10° S 19:26:38 44° WSW 19:31:26 10° NNW visible
22 Feb 2.9 18:44:59 10° SSE 18:50:01 64° ENE 18:55:01 10° N visible
23 Feb 4.0 18:09:31 10° SE 18:15:17 18° NE 18:17:16 10° NNE visible
23 Feb 5.2 19:48:21 10° SSW 19:52:08 21° WSW 19:55:55 10° NW visible
24 Feb 3.4 19:10:32 10° S 19:15:32 61° WSW 19:20:32 10° NNW visible
25 Feb 3.2 18:34:03 10° SSE 18:40:48 32° NNE 18:43:44 10° N visible
26 Feb 4.5 17:59:11 10° ESE 18:03:31 15° ENE 18:05:24 10° NE visible
26 Feb 4.8 19:36:43 10° SSW 19:41:02 29° WSW 19:45:22 10° NW visible
27 Feb 3.1 18:59:21 10° S 19:06:29 37° NNW 19:09:30 10° NNW visible
28 Feb 3.9 18:23:15 10° SE 18:29:16 28° NE 18:32:21 10° NNE visible
28 Feb 5.8 20:04:02 10° SW 20:09:28 - WNW 20:06:15 14° WSW visible
01 Mar 4.8 17:52:03 11° ENE 17:52:03 11° ENE 17:52:58 10° ENE visible
01 Mar 4.4 19:25:14 10° S 19:32:16 25° NW 19:34:38 10° NW visible
02 Mar 3.6 18:48:15 10° SSE 18:55:05 41° N 18:58:22 10° N visible
